DMSP 5D-2 F13 DEB

Satellite information

Favourite Embed

Satellite Type and Status

DEBRISDECAYED

Key statistics

Satellite DMSP 5D-2 F13 DEB at a glance.

Uptime

10819

Days in orbit

Revolutions

≈ 14.6

Per day

Orbit

SSO

Sun Synchronous Orbit

Inclination

98.7

Latest

Satellite identification and parameters

Extended collection of information and parameters for DMSP 5D-2 F13 DEB.

Object identification

Identified? True

Debris? True

Object name: DMSP 5D-2 F13 DEB

International designator: 1995-015FW

Object number (NORAD): 40721

Object ID (CCSDS): 40721

Country: UNITED STATES OF AMERICA (US)

Current information (Y/N): Y

RCS size: SMALL

Orbital parameters

Decay date: Nov. 5, 2024

Period: 98.838 minutes

Inclination: 98.7177 deg

SMA: 7081.23 km

Apoapsis: 716.304 km

Periapsis: 689.886 km

RAAN: 109.6884 deg

Eccentricy: 0.0018654

Argument of periapsis: 135.2015 deg

Mean anomaly: 225.0692 deg

Mean motion: 14.5693341 rev/day

Mean motion (dot): 0.00040373 rev/day2

B* drag term: 0.0089303 1/REarth

Two-line elements (TLE)

Creation date: Feb. 11, 2024, 10:36 p.m.

Reference frame: TEME

Reference center: EARTH

Epoch: Feb. 11, 2024, 9:54 a.m. UTC

TLE line 0: 0 DMSP 5D-2 F13 DEB

TLE line 1: 1 40721U 95015FW 24042.41306071 .00040373 00000-0 89303-2 0 9990

TLE line 2: 2 40721 98.7177 109.6884 0018654 135.2015 225.0692 14.56933410454456

Live tracking on map

Satellite DMSP 5D-2 F13 DEB has decayed and is no longer in orbit. No tracking available.

In-orbit conjunctions

Satellite DMSP 5D-2 F13 DEB has decayed and is no longer in orbit. No conjunctions available.

Associated space launch

Military meteorological satellite

DMSP 5D-2 F13 DEB was lifted into orbit during the mission ‘Atlas E | DMSP-5D2 F13’, on board a Atlas E space rocket.

The launch took place on March 24, 1995, 2:05 p.m. from Space Launch Complex 3W.

For more information about the launch, click the button.

Launch to space Atlas E | DMSP-5D2 F13
Atlas E | DMSP-5D2 F13

Agency: N/A

Status: Launch Successful

Launch date: March 24, 1995, 2:05 p.m. UTC

Rocket: Atlas E

Launch pad: Space Launch Complex 3W

Location: Vandenberg SFB, CA, USA

...

Latest news about this satellite

There are no fresh news available about this satellite. Check back as we update our databases every day.


Newsletter sign-up

Weekly statistics, charts and insights to help you stay on top of the space industry.